GW0603 Weather Reports


Display with metric or nautical units.
time (UTC)temp
F
wind
direction
speed
MPH
gust
MPH
rain 1hr
in
rain 24hr
in
rain mn
in
humidity
%
barometer
mb
20260906034606 68 0 0.0 0.0 0.00 0.00 0.00 93 1013.4
20260906033104 69 0 0.0 0.0 0.00 0.00 0.00 92 1013.4
20260906031604 69 0 0.0 0.0 0.00 0.00 0.00 92 1013.4
20260906030109 70 0 0.0 0.0 0.00 0.00 0.00 92 1013.4
20260906024604 69 0 0.0 0.0 0.00 0.00 0.00 92 1013.1
20260906023110 70 0 0.0 0.0 0.00 0.00 0.00 89 1013.1
20260906021611 71 0 0.0 0.0 0.00 0.00 0.00 88 1013.2
20260906020109 71 159 2.0 5.0 0.00 0.00 0.00 89 1013.2
20260906014608 71 0 0.0 0.0 0.00 0.00 0.00 87 1013.0
20260906013106 72 0 0.0 0.0 0.00 0.00 0.00 87 1013.0
20260906011609 72 0 0.0 0.0 0.00 0.00 0.00 86 1012.7
20260906010112 72 0 0.0 0.0 0.00 0.00 0.00 86 1012.7
20260906004604 73 0 0.0 2.0 0.00 0.00 0.00 83 1012.4
20260906003108 75 0 0.0 2.0 0.00 0.00 0.00 81 1012.1
20260906001606 74 196 0.0 3.0 0.00 0.00 0.00 83 1011.9
20260906000111 74 0 0.0 0.0 0.00 0.00 0.00 82 1011.9
20260905234606 76 0 0.0 0.0 0.00 0.00 0.00 79 1011.7
20260905233117 77 0 0.0 3.0 0.00 0.00 0.00 77 1011.8
20260905231611 79 194 1.0 3.0 0.00 0.00 0.00 73 1011.7
20260905230108 79 0 1.0 3.0 0.00 0.00 0.00 72 1011.7
20260905224607 80 0 0.0 1.0 0.00 0.00 0.00 68 1011.6
20260905223108 79 187 1.0 4.0 0.00 0.00 0.00 70 1011.7
20260905221607 80 177 2.0 5.0 0.00 0.00 0.00 68 1011.7
20260905220108 80 196 2.0 6.0 0.00 0.00 0.00 66 1011.6
20260905214610 81 215 1.0 6.0 0.00 0.00 0.00 65 1011.9
20260905213113 79 0 3.0 9.0 0.00 0.00 0.00 70 1012.0
20260905211613 79 175 2.0 8.0 0.00 0.00 0.00 69 1012.1
20260905210112 77 188 3.0 8.0 0.00 0.00 0.00 73 1012.0
20260905204608 78 198 2.0 7.0 0.00 0.00 0.00 71 1012.2
20260905203107 77 204 4.0 11.0 0.00 0.00 0.00 70 1012.4
20260905201607 77 188 3.0 9.0 0.00 0.00 0.00 74 1012.4
20260905200108 76 261 3.0 11.0 0.00 0.00 0.00 75 1012.7
20260905194607 76 198 3.0 8.0 0.00 0.00 0.00 75 1012.8
20260905193105 76 167 2.0 9.0 0.00 0.00 0.00 74 1013.0
20260905191606 76 240 2.0 5.0 0.00 0.00 0.00 68 1013.0
20260905190104 76 94 1.0 6.0 0.00 0.00 0.00 67 1012.5
20260905184611 77 292 2.0 7.0 0.00 0.00 0.00 67 1012.8
20260905183119 79 0 1.0 8.0 0.00 0.00 0.00 58 1012.0
20260905181606 81 12 5.0 10.0 0.00 0.00 0.00 56 1012.5
20260905180109 83 82 2.0 9.0 0.00 0.00 0.00 59 1013.1
20260905174606 83 43 6.0 20.0 0.00 0.00 0.00 56 1013.6
20260905173113 86 44 8.0 18.0 0.00 0.00 0.00 50 1014.2
20260905171605 91 28 2.0 10.0 0.00 0.00 0.00 53 1013.7
20260905170109 92 0 2.0 8.0 0.00 0.00 0.00 49 1013.8
20260905164609 91 167 3.0 8.0 0.00 0.00 0.00 53 1013.8
20260905163110 91 253 2.0 6.0 0.00 0.00 0.00 55 1013.9
20260905161608 89 94 1.0 6.0 0.00 0.00 0.00 57 1014.1
20260905160105 90 304 2.0 9.0 0.00 0.00 0.00 57 1014.5
20260905154607 89 296 2.0 8.0 0.00 0.00 0.00 59 1014.4
20260905153117 87 188 2.0 6.0 0.00 0.00 0.00 62 1014.2
20260905151611 86 232 2.0 6.0 0.00 0.00 0.00 66 1014.2
20260905150107 85 180 1.0 7.0 0.00 0.00 0.00 69 1014.3
20260905144605 83 226 3.0 7.0 0.00 0.00 0.00 72 1014.3
20260905143109 82 273 1.0 5.0 0.00 0.00 0.00 74 1014.5
20260905141629 80 222 3.0 6.0 0.00 0.00 0.00 76 1014.5
20260905140109 78 216 1.0 6.0 0.00 0.00 0.00 79 1014.4
20260905134604 77 193 0.0 4.0 0.00 0.00 0.00 82 1014.6
20260905133103 76 0 0.0 4.0 0.00 0.00 0.00 86 1014.6
20260905131619 74 294 0.0 3.0 0.00 0.00 0.00 88 1014.6
20260905130106 73 0 1.0 4.0 0.00 0.00 0.00 90 1014.8
20260905124608 72 198 0.0 3.0 0.00 0.00 0.00 90 1014.7
20260905123110 71 238 1.0 4.0 0.00 0.00 0.00 94 1014.6
20260905121609 70 202 0.0 2.0 0.00 0.00 0.00 96 1014.7
20260905120108 69 202 2.0 3.0 0.00 0.00 0.00 96 1014.5
20260905114611 68 0 0.0 2.0 0.00 0.00 0.00 96 1014.5
20260905113108 68 0 0.0 2.0 0.00 0.00 0.00 96 1014.4
20260905111605 68 0 0.0 2.0 0.00 0.00 0.00 96 1014.1
20260905110107 67 0 0.0 0.0 0.00 0.00 0.00 96 1013.9
20260905104606 68 0 0.0 0.0 0.00 0.00 0.00 96 1013.8
20260905103111 68 0 0.0 0.0 0.00 0.00 0.00 96 1013.8
20260905101607 68 0 0.0 0.0 0.00 0.00 0.00 96 1013.4
20260905100126 68 0 0.0 0.0 0.00 0.00 0.00 96 1013.4
20260905094606 68 0 0.0 0.0 0.00 0.00 0.00 96 1013.4
20260905093106 69 0 0.0 0.0 0.00 0.00 0.00 96 1013.4
20260905091605 68 0 0.0 0.0 0.00 0.00 0.00 96 1013.3
20260905090136 69 0 0.0 0.0 0.00 0.00 0.00 96 1013.3
20260905084604 69 0 0.0 0.0 0.00 0.00 0.00 95 1013.5
20260905083110 69 0 0.0 0.0 0.00 0.00 0.00 96 1013.8
20260905081606 69 0 0.0 0.0 0.00 0.00 0.00 95 1013.7
20260905080105 69 0 0.0 0.0 0.00 0.00 0.00 95 1014.0
20260905074609 69 0 0.0 0.0 0.00 0.00 0.00 95 1014.1
20260905073108 69 0 0.0 0.0 0.00 0.00 0.00 95 1014.2
20260905071606 69 0 0.0 0.0 0.00 0.00 0.00 95 1014.3
20260905070110 70 0 0.0 1.0 0.00 0.00 0.00 95 1014.3
20260905064607 70 0 0.0 3.0 0.00 0.00 0.00 94 1014.4
20260905063106 70 0 1.0 2.0 0.00 0.00 0.00 94 1014.6
20260905061607 70 0 0.0 0.0 0.00 0.00 0.00 93 1014.9
20260905060104 71 0 0.0 0.0 0.00 0.00 0.00 93 1015.0
20260905054609 71 0 0.0 0.0 0.00 0.00 0.00 92 1015.3
20260905053109 71 107 0.0 2.0 0.00 0.00 0.00 92 1015.4
20260905051606 71 107 1.0 2.0 0.00 0.00 0.00 92 1015.4
20260905050109 72 0 0.0 0.0 0.00 0.00 0.00 91 1015.5
20260905044611 72 0 0.0 0.0 0.00 0.00 0.00 92 1015.4
20260905043106 72 107 0.0 3.0 0.00 0.00 0.00 91 1015.3
20260905041605 72 11 0.0 4.0 0.00 0.00 0.00 91 1015.3
20260905040110 72 0 0.0 2.0 0.00 0.00 0.00 90 1015.2